Weather History for Tillamook, OR

Change the Weather History Date:

Sunday, November 10, 2013

  Actual Average (KMMV) Record (KMMV)
Temperature  
Mean Temperature 51 °F 46 °F  
Max Temperature 60 °F 54 °F 70 °F (1923)
Min Temperature 42 °F 39 °F 24 °F (1936)
Degree Days  
Heating Degree Days 14 19  
Month to date heating degree days 180  
Since 1 July heating degree days 803  
Cooling Degree Days 0 0  
Month to date cooling degree days 0  
Year to date cooling degree days 215  
Growing Degree Days 1 (Base 50)    
Moisture  
Dew Point 47 °F    
Average Humidity 90    
Maximum Humidity 100    
Minimum Humidity 63    
Precipitation  
Precipitation 0.00 in 0.21 in 1.90 in (1962)
Month to date precipitation 1.97  
Year to date precipitation 28.83  
Sea Level Pressure  
Sea Level Pressure 30.05 in    
Wind  
Wind Speed 1 mph (SE)    
Max Wind Speed 5 mph    
Max Gust Speed -    
Visibility 9 miles    
Events Fog    
T = Trace of Precipitation, MM = Missing Value Source: NWS Daily Summary

Daily Weather History Graph

Daily Weather History Graph

Search for Another Location

Airport:

Trip Planner

Search our weather history database for the weather conditions in past years. The results will help you decide how hot, cold, wet, or windy it might be!

Date:

Astronomy

Nov. 10, 2013 Rise Set
Actual Time 8:07 AM MST 5:50 PM MST
Civil Twilight 7:35 AM MST 6:21 PM MST
Nautical Twilight 7:00 AM MST 6:57 PM MST
Astronomical Twilight 6:25 AM MST 7:32 PM MST
Moon 2:17 PM MST (11/10) 12:32 AM MST (11/10)
Length of Visible Light 10h 45m
Length of Day
9h 42m
First Quarter, 56% of the Moon is Illuminated
Nov 10
First Quarter
Nov 17
Full
Nov 25
Last Quarter
Dec 2
New
Dec 9
First Quarter

Hourly Weather History & Observations

Time (MST) Temp. Windchill Dew Point Humidity Pressure Visibility Wind Dir Wind Speed Gust Speed Precip Events Conditions
12:15 AM 46.4 °F - 46.4 °F 100% 30.06 in 10.0 mi Calm Calm - N/A   Overcast
12:35 AM 46.4 °F - 46.4 °F 100% 30.05 in 10.0 mi Calm Calm - N/A   Overcast
12:55 AM 46.4 °F - 46.4 °F 100% 30.05 in 7.0 mi Calm Calm - N/A   Overcast
1:15 AM 46.4 °F - 46.4 °F 100% 30.06 in 7.0 mi Calm Calm - N/A   Overcast
1:35 AM 46.4 °F - 46.4 °F 100% 30.05 in 10.0 mi Calm Calm - N/A   Overcast
1:55 AM 46.4 °F - 46.4 °F 100% 30.05 in 10.0 mi Calm Calm - N/A   Overcast
2:15 AM 46.4 °F - 46.4 °F 100% 30.05 in 10.0 mi Calm Calm - N/A   Overcast
2:35 AM 46.4 °F - 46.4 °F 100% 30.04 in 7.0 mi Calm Calm - N/A   Overcast
2:55 AM 46.4 °F - 46.4 °F 100% 30.04 in 5.0 mi Calm Calm - N/A   Overcast
3:15 AM 46.4 °F - 46.4 °F 100% 30.04 in 7.0 mi Calm Calm - N/A   Mostly Cloudy
3:35 AM 44.6 °F - 44.6 °F 100% 30.04 in 4.0 mi Calm Calm - N/A   Mostly Cloudy
3:55 AM 44.6 °F - 44.6 °F 100% 30.04 in 7.0 mi Calm Calm - N/A   Mostly Cloudy
4:15 AM 46.4 °F - 44.6 °F 93% 30.04 in 7.0 mi Calm Calm - N/A   Overcast
4:35 AM 46.4 °F - 46.4 °F 100% 30.03 in 7.0 mi Calm Calm - N/A   Overcast
4:55 AM 44.6 °F - 44.6 °F 100% 30.03 in 10.0 mi Calm Calm - N/A   Mostly Cloudy
5:15 AM 44.6 °F - 44.6 °F 100% 30.03 in 10.0 mi Calm Calm - N/A   Scattered Clouds
5:35 AM 44.6 °F - 44.6 °F 100% 30.03 in 5.0 mi Calm Calm - N/A   Scattered Clouds
5:55 AM 44.6 °F - 44.6 °F 100% 30.03 in 10.0 mi Calm Calm - N/A   Mostly Cloudy
6:15 AM 44.6 °F 43.1 °F 44.6 °F 100% 30.03 in 10.0 mi ESE 3.5 mph - N/A   Overcast
6:35 AM 44.6 °F 43.1 °F 42.8 °F 93% 30.04 in 10.0 mi SE 3.5 mph - N/A   Scattered Clouds
6:55 AM 44.6 °F 43.1 °F 42.8 °F 93% 30.04 in 10.0 mi SSE 3.5 mph - N/A   Clear
7:15 AM 44.6 °F 42.2 °F 42.8 °F 93% 30.04 in 10.0 mi SE 4.6 mph - N/A   Clear
7:35 AM 44.6 °F 42.2 °F 42.8 °F 93% 30.04 in 10.0 mi SE 4.6 mph - N/A   Clear
7:55 AM 42.8 °F 41.1 °F 42.8 °F 100% 30.04 in 10.0 mi SE 3.5 mph - N/A   Clear
8:15 AM 42.8 °F 41.1 °F 42.8 °F 100% 30.04 in 10.0 mi SE 3.5 mph - N/A   Clear
8:35 AM 42.8 °F 41.1 °F 42.8 °F 100% 30.05 in 10.0 mi North 3.5 mph - N/A   Clear
8:55 AM 42.8 °F 41.1 °F 42.8 °F 100% 30.05 in 10.0 mi SE 3.5 mph - N/A   Scattered Clouds
9:15 AM 42.8 °F 41.1 °F 42.8 °F 100% 30.06 in 10.0 mi SSE 3.5 mph - N/A   Clear
9:35 AM 44.6 °F 42.2 °F 44.6 °F 100% 30.06 in 10.0 mi SSE 4.6 mph - N/A   Scattered Clouds
9:55 AM 44.6 °F 43.1 °F 44.6 °F 100% 30.07 in 10.0 mi SE 3.5 mph - N/A   Scattered Clouds
10:15 AM 46.4 °F 45.2 °F 44.6 °F 93% 30.07 in 10.0 mi SE 3.5 mph - N/A   Mostly Cloudy
10:35 AM 48.2 °F - 46.4 °F 93% 30.07 in 10.0 mi Calm Calm - N/A   Scattered Clouds
10:55 AM 50.0 °F - 44.6 °F 82% 30.07 in 10.0 mi Calm Calm - N/A   Scattered Clouds
11:15 AM 50.0 °F - 46.4 °F 87% 30.07 in 10.0 mi Calm Calm - N/A   Scattered Clouds
11:35 AM 51.8 °F - 46.4 °F 82% 30.07 in 10.0 mi Calm Calm - N/A   Clear
11:55 AM 53.6 °F - 46.4 °F 77% 30.07 in 10.0 mi Calm Calm - N/A   Mostly Cloudy
12:15 PM 55.4 °F - 46.4 °F 72% 30.07 in 10.0 mi Calm Calm - N/A   Overcast
12:35 PM 55.4 °F - 46.4 °F 72% 30.06 in 10.0 mi Calm Calm - N/A   Scattered Clouds
12:55 PM 55.4 °F - 46.4 °F 72% 30.06 in 10.0 mi Calm Calm - N/A   Clear
1:15 PM 59.0 °F - 46.4 °F 63% 30.05 in 10.0 mi Calm Calm - N/A   Clear
1:35 PM 59.0 °F - 48.2 °F 67% 30.05 in 2.0 mi Calm Calm - N/A   Haze
1:55 PM 59.0 °F - 46.4 °F 63% 30.04 in 10.0 mi Calm Calm - N/A   Clear
2:15 PM 59.0 °F - 48.2 °F 67% 30.04 in 10.0 mi Calm Calm - N/A   Clear
2:35 PM 60.8 °F - 48.2 °F 63% 30.04 in 10.0 mi Calm Calm - N/A   Clear
2:55 PM 60.8 °F - 48.2 °F 63% 30.03 in 10.0 mi Calm Calm - N/A   Clear
3:15 PM 60.8 °F - 48.2 °F 63% 30.04 in 10.0 mi Calm Calm - N/A   Clear
3:35 PM 60.8 °F - 50.0 °F 68% 30.03 in 10.0 mi Calm Calm - N/A   Clear
3:55 PM 60.8 °F - 50.0 °F 68% 30.03 in 10.0 mi Calm Calm - N/A   Clear
4:15 PM 60.8 °F - 50.0 °F 68% 30.03 in 10.0 mi Calm Calm - N/A   Clear
4:35 PM 60.8 °F - 48.2 °F 63% 30.03 in 10.0 mi Calm Calm - N/A   Clear
4:55 PM 60.8 °F - 50.0 °F 68% 30.03 in 10.0 mi Calm Calm - N/A   Clear
5:15 PM 60.8 °F - 50.0 °F 68% 30.03 in 10.0 mi Calm Calm - N/A   Clear
5:35 PM 55.4 °F - 53.6 °F 94% 30.04 in 10.0 mi Calm Calm - N/A   Clear
5:55 PM 55.4 °F - 53.6 °F 94% 30.04 in 5.0 mi Calm Calm - N/A   Clear
6:15 PM 53.6 °F - 51.8 °F 94% 30.04 in 10.0 mi South 3.5 mph - N/A   Clear
6:35 PM 51.8 °F - 51.8 °F 100% 30.04 in 10.0 mi Calm Calm - N/A   Clear
6:55 PM 51.8 °F - 50.0 °F 94% 30.05 in 10.0 mi Calm Calm - N/A   Clear
7:15 PM 50.0 °F - 50.0 °F 100% 30.06 in 10.0 mi SE 4.6 mph - N/A   Clear
7:35 PM 50.0 °F - 50.0 °F 100% 30.06 in 10.0 mi Calm Calm - N/A   Clear
7:55 PM 50.0 °F - 48.2 °F 94% 30.07 in 10.0 mi SSE 3.5 mph - N/A   Clear
8:15 PM 50.0 °F - 50.0 °F 100% 30.07 in 10.0 mi Calm Calm - N/A   Clear
8:35 PM 50.0 °F - 48.2 °F 94% 30.08 in 10.0 mi Calm Calm - N/A   Clear
8:55 PM 48.2 °F - 48.2 °F 100% 30.08 in 7.0 mi ESE 3.5 mph - N/A   Clear
9:15 PM 48.2 °F - 46.4 °F 93% 30.08 in 7.0 mi Calm Calm - N/A   Clear
9:35 PM 48.2 °F - 48.2 °F 100% 30.08 in 7.0 mi SE 3.5 mph - N/A   Clear
9:55 PM 46.4 °F 45.2 °F 46.4 °F 100% 30.08 in 7.0 mi ESE 3.5 mph - N/A   Clear
10:15 PM 46.4 °F 45.2 °F 46.4 °F 100% 30.08 in 7.0 mi SE 3.5 mph - N/A   Scattered Clouds
10:35 PM 46.4 °F 44.3 °F 46.4 °F 100% 30.08 in 7.0 mi SE 4.6 mph - N/A   Scattered Clouds
10:55 PM 46.4 °F - 46.4 °F 100% 30.07 in 7.0 mi Calm Calm - N/A   Clear
11:15 PM 46.4 °F - 46.4 °F 100% 30.07 in 4.0 mi Calm Calm - N/A   Clear
11:35 PM 44.6 °F - 44.6 °F 100% 30.08 in 2.5 mi Calm Calm - N/A   Clear
11:55 PM 44.6 °F - 44.6 °F 100% 30.07 in 0.5 mi Calm Calm - N/A Fog Fog